[[{"header":{"parameterUnit":"m.s-1","parameterCategory":1,"la1":30.2991,"la2":30.254,"lo1":-89.0895,"lo2":-89.0444,"dy":0.0017,"dx":0.0017,"nx":28,"ny":28,"refTime":"2025-06-16T03:00:00:Z","depth":0,"parameterNumber":2,"parameterNumberName":"U-component_of_WINDS"},"data":[0,0,0,0,0,0,0,0,0,0,0,0,0,0,0,0,0,0,0,0,0,0,0,0,0,0,0,0,0,0,0,0,0,0,0,0,0,0,0,0,0,0,0,0,0,0,0,0,0,0,0,0,0,0,0,0,0,0,1.4217,1.4216,0,1.4159,1.4158,1.4157,1.4077,1.4075,1.4074,1.4073,1.4016,1.4016,1.4016,0,0,0,0,0,0,0,0,0,0,0,0,0,1.4262,1.4262,1.4217,1.4216,1.4216,1.4159,1.4158,1.4157,1.4077,1.4075,1.4074,1.4072,1.4016,1.4016,1.4016,0,0,0,0,0,0,0,0,0,0,0,0,0,1.4227,1.4261,1.4217,1.4169,1.4164,1.4159,1.4158,1.4157,1.4077,1.4075,1.4073,1.4071,1.4016,1.4016,1.4016,1.4055,0,0,1.4015,1.4015,0,0,0,0,0,0,0,0,1.4229,1.4226,1.4176,1.4172,1.4166,1.4123,1.4153,1.4123,1.4078,1.411,1.4073,1.407,1.4054,1.405,1.4044,1.4052,1.405,1.4015,1.4015,1.4014,1.4014,0,0,0,0,0,0,0,1.4232,1.4228,1.4194,1.4176,1.417,1.4151,1.4143,1.4147,1.4094,1.4107,1.4101,1.4095,1.4051,1.4044,1.4042,1.4049,1.4015,1.4015,1.4014,1.4014,1.4087,1.4089,0,0,0,0,0,0,1.4241,1.423,1.4196,1.4192,1.4193,1.4152,1.4143,1.4139,1.4094,1.4085,1.4097,1.4092,1.4046,1.4042,1.404,1.4082,1.4014,1.4014,1.4014,1.4084,1.4087,1.4089,0,0,0,0,0,0,1.4242,1.4239,1.4198,1.4209,1.4203,1.4153,1.4149,1.4139,1.4132,1.4086,1.4077,1.41,1.4044,1.404,1.4051,1.4079,1.4014,1.4014,1.4082,1.4085,1.4088,1.4168,0,0,0,0,0,0,1.4244,1.424,1.4253,1.421,1.4203,1.4211,1.415,1.4139,1.4132,1.4124,1.4087,1.4079,1.4042,1.4052,1.4051,1.4078,1.4013,1.4079,1.4083,1.4087,1.4163,1.4174,1.4183,0,0,0,0,0,1.4246,1.4279,1.4254,1.4251,1.4219,1.4212,1.4208,1.4164,1.4134,1.4148,1.4118,1.408,1.4076,1.4054,1.4052,1.4079,1.4077,1.4082,1.4087,1.4158,1.4172,1.4183,0,0,0,0,0,0,1.4328,1.4273,1.4245,1.4265,1.4244,1.4199,1.4215,1.418,1.4168,1.4161,1.4109,1.4101,1.4119,1.41,1.4076,1.4114,1.4071,1.4076,1.4126,1.4138,1.4148,1.4153,1.4013,0,0,0,0,0,1.4348,1.4347,1.4299,1.4321,1.4312,1.4265,1.4261,1.4229,1.4206,1.4197,1.4168,1.4147,1.4141,1.4139,1.4131,1.416,1.415,1.4177,1.4187,1.4196,1.42,1.4214,1.4225,1.4105,1.4105,1.4105,0,0,1.4391,1.436,1.4363,1.4337,1.4317,1.4317,1.4258,1.4262,1.4262,1.4197,1.4206,1.4184,1.4158,1.4178,1.4186,1.4163,1.4231,1.4202,1.4209,1.4209,1.422,1.4232,1.4242,1.4108,1.4108,1.4107,0,0,1.4468,1.4445,1.4461,1.4441,1.4411,1.4379,1.4384,1.4343,1.4326,1.4333,1.4285,1.4285,1.4276,1.4259,1.4249,1.432,1.4284,1.4319,1.4372,1.4386,1.4395,1.4403,1.4428,1.4438,1.4323,1.4324,1.4324,0,1.4525,1.4522,1.4474,1.4479,1.447,1.441,1.4426,1.441,1.438,1.4375,1.4349,1.4336,1.4314,1.433,1.4347,1.4341,1.4344,1.4323,1.4397,1.4405,1.4412,1.4435,1.4445,1.4328,1.4328,1.4327,1.4327,0,1.4594,1.4593,1.461,1.458,1.4572,1.4584,1.4537,1.4535,1.4504,1.4476,1.4484,1.4456,1.4441,1.4442,1.4412,1.4453,1.444,1.4407,1.4362,1.4429,1.445,1.4458,1.4334,1.4333,1.4331,1.433,0,0,1.4722,1.4665,1.4672,1.4657,1.4619,1.4618,1.4627,1.4611,1.461,1.4591,1.4597,1.4591,1.4559,1.4548,1.4516,1.4528,1.4586,1.4493,1.4492,1.4512,1.4629,1.4655,1.4666,1.4561,1.4563,1.4564,1.4632,0,1.4793,1.4803,1.4759,1.4781,1.478,1.4723,1.473,1.4708,1.4682,1.4678,1.4649,1.4645,1.4604,1.4597,1.4606,1.4577,1.4609,1.4571,1.4568,1.4568,1.4576,1.4677,1.4704,1.4769,1.464,1.4641,1.4642,0,1.4876,1.486,1.4882,1.4842,1.484,1.4847,1.4829,1.4825,1.4799,1.4779,1.4766,1.4728,1.4735,1.4692,1.47,1.4675,1.4671,1.4656,1.4658,1.4656,1.4609,1.4679,1.4789,1.4799,1.4654,1.4653,1.4653,0,1.4968,1.4952,1.4963,1.4952,1.4906,1.4912,1.4894,1.4865,1.4858,1.4843,1.4838,1.4823,1.4816,1.4806,1.4765,1.4738,1.4779,1.4732,1.4763,1.4764,1.4774,1.4774,1.4886,1.4771,1.4771,1.4771,1.4771,0,1.5052,1.5068,1.5003,1.501,1.5026,1.4975,1.4993,1.4968,1.4944,1.4945,1.4895,1.4898,1.4844,1.4841,1.4809,1.4821,1.4818,1.4802,1.4794,1.4807,1.4809,1.4804,1.4798,1.4774,1.4773,1.4772,1.4772,0,1.5157,1.5115,1.5123,1.5078,1.5067,1.5081,1.5042,1.5047,1.5017,1.502,1.5017,1.4971,1.4964,1.4923,1.4907,1.4886,1.4909,1.4892,1.4918,1.4912,1.4945,1.4943,1.5058,1.507,1.4948,1.4949,1.495,0,1.5214,1.5224,1.518,1.5177,1.516,1.5156,1.5148,1.5098,1.5093,1.5063,1.5072,1.5061,1.505,1.5042,1.5008,1.4996,1.4978,1.5019,1.4976,1.4988,1.4979,1.4979,1.4979,1.5028,1.503,1.5031,1.5032,0,1.5318,1.5296,1.5287,1.527,1.5261,1.5246,1.5227,1.5228,1.5173,1.517,1.5162,1.5153,1.5136,1.5127,1.5108,1.5089,1.5052,1.5046,1.5052,1.5066,1.5081,1.5073,1.4943,1.5044,1.5043,1.5042,1.5041,1.5041,1.5401,1.5408,1.5377,1.5368,1.5348,1.5332,1.5334,1.5304,1.5296,1.5278,1.5249,1.5246,1.5219,1.519,1.5174,1.5171,1.5149,1.5159,1.5161,1.5164,1.5171,1.5081,1.5168,1.5167,1.5167,1.5166,1.5166,0,1.5503,1.548,1.5472,1.5447,1.544,1.5404,1.5381,1.5378,1.5375,1.5353,1.5342,1.5333,1.5323,1.5287,1.5274,1.5278,1.5261,1.5276,1.5276,1.5272,1.5191,1.5187,1.5291,1.5291,1.529,1.529,1.529,1.529,1.5556,1.5565,1.5539,1.5538,1.5515,1.551,1.55,1.5485,1.5467,1.5459,1.545,1.5426,1.5398,1.5382,1.5371,1.5361,1.5358,1.538,1.5364,1.529,1.5278,1.5266,1.5262,1.538,1.538,1.5445,1.5445,1.5446]},{"header":{"parameterUnit":"m.s-1","parameterCategory":1,"la1":30.2991,"la2":30.254,"lo1":-89.0895,"lo2":-89.0444,"dy":0.0017,"dx":0.0017,"nx":28,"ny":28,"refTime":"2025-06-16T03:00:00:Z","depth":0,"parameterNumber":3,"parameterNumberName":"V-component_of_WINDS"},"data":[0,0,0,0,0,0,0,0,0,0,0,0,0,0,0,0,0,0,0,0,0,0,0,0,0,0,0,0,0,0,0,0,0,0,0,0,0,0,0,0,0,0,0,0,0,0,0,0,0,0,0,0,0,0,0,0,0,0,4.7416,4.7419,0,4.7683,4.7686,4.7689,4.7734,4.7732,4.773,4.7728,4.7987,4.7996,4.8005,0,0,0,0,0,0,0,0,0,0,0,0,0,4.6929,4.6938,4.7415,4.7419,4.7422,4.7682,4.7686,4.7689,4.7735,4.7732,4.7729,4.7727,4.7984,4.7995,4.8006,0,0,0,0,0,0,0,0,0,0,0,0,0,4.7162,4.6941,4.7415,4.7476,4.7485,4.7682,4.7686,4.769,4.7735,4.7732,4.7729,4.7726,4.7981,4.7994,4.8007,4.8157,0,0,4.8048,4.8054,0,0,0,0,0,0,0,0,4.7149,4.718,4.7464,4.7473,4.7482,4.7672,4.761,4.7846,4.7736,4.764,4.7728,4.7724,4.7884,4.7905,4.7962,4.8169,4.818,4.8049,4.8057,4.8063,4.8067,0,0,0,0,0,0,0,4.7133,4.7169,4.7521,4.7468,4.7479,4.7486,4.7515,4.7655,4.7777,4.7648,4.7652,4.7684,4.7888,4.7949,4.7969,4.8184,4.8049,4.8061,4.8069,4.8074,4.8525,4.8528,0,0,0,0,0,0,4.7108,4.7155,4.7512,4.7529,4.7304,4.7497,4.753,4.7614,4.7776,4.7797,4.7686,4.7685,4.7928,4.7953,4.7978,4.8164,4.8063,4.8076,4.8084,4.8521,4.8525,4.853,0,0,0,0,0,0,4.7097,4.7139,4.7501,4.7343,4.739,4.7509,4.7603,4.7621,4.7683,4.7805,4.7825,4.7727,4.7926,4.7959,4.8113,4.8173,4.8082,4.8094,4.8516,4.8522,4.8528,4.8537,0,0,0,0,0,0,4.7083,4.7135,4.7197,4.7345,4.7398,4.7636,4.7607,4.7629,4.7707,4.7708,4.7849,4.7868,4.7926,4.8092,4.8126,4.819,4.8105,4.8511,4.8519,4.8526,4.8531,4.8542,4.8551,0,0,0,0,0,4.7065,4.7186,4.72,4.7243,4.7479,4.764,4.767,4.7738,4.7712,4.7773,4.7851,4.7864,4.8161,4.8108,4.8146,4.8215,4.8508,4.8517,4.8525,4.8527,4.854,4.8551,0,0,0,0,0,0,4.7038,4.7207,4.7224,4.7397,4.7504,4.7647,4.7727,4.775,4.7863,4.7858,4.7933,4.7964,4.8114,4.8179,4.8117,4.8367,4.8332,4.8348,4.832,4.8333,4.8343,4.8324,4.8116,0,0,0,0,0,4.7053,4.7174,4.7313,4.7452,4.7505,4.7607,4.7679,4.7722,4.7835,4.7879,4.7968,4.8073,4.8189,4.8265,4.8379,4.854,4.857,4.8606,4.8616,4.8624,4.8637,4.8726,4.8744,4.8558,4.8558,4.8558,0,0,4.7083,4.719,4.7262,4.7449,4.7538,4.7657,4.7644,4.7771,4.786,4.7896,4.8049,4.8118,4.8238,4.8397,4.8471,4.8456,4.8695,4.8635,4.864,4.865,4.8737,4.8754,4.877,4.8564,4.8563,4.8562,0,0,4.72,4.7295,4.7421,4.751,4.7646,4.7712,4.7742,4.7882,4.7931,4.8086,4.8116,4.8218,4.8418,4.8504,4.8573,4.872,4.8736,4.8754,4.8806,4.8892,4.8906,4.892,4.8972,4.899,4.8768,4.8768,4.8768,0,4.722,4.7407,4.7481,4.7609,4.7689,4.7732,4.7857,4.7938,4.8102,4.8154,4.8136,4.8388,4.8472,4.8651,4.8687,4.8741,4.8775,4.874,4.8899,4.8913,4.8927,4.8977,4.8996,4.8769,4.8769,4.8769,4.8769,0,4.7423,4.7552,4.7636,4.7799,4.7888,4.8013,4.8102,4.8182,4.8217,4.8283,4.8438,4.8541,4.8677,4.8722,4.8755,4.8904,4.8891,4.8885,4.8851,4.8945,4.8993,4.9013,4.8771,4.8771,4.877,4.877,0,0,4.7532,4.7735,4.7765,4.7839,4.799,4.8089,4.8213,4.8351,4.8417,4.8527,4.8632,4.88,4.8796,4.8874,4.8917,4.8992,4.9101,4.8977,4.8981,4.8996,4.9271,4.9275,4.9296,4.9112,4.9116,4.9119,4.926,0,4.7667,4.7899,4.7969,4.816,4.8278,4.832,4.8428,4.853,4.8595,4.87,4.8769,4.8887,4.8873,4.8921,4.8997,4.9072,4.9157,4.9062,4.9207,4.9211,4.9177,4.9322,4.9327,4.9455,4.928,4.9283,4.9286,0,4.7857,4.7976,4.8181,4.8318,4.837,4.8467,4.8598,4.8699,4.8813,4.8855,4.8943,4.8979,4.9106,4.9064,4.9239,4.9173,4.9235,4.928,4.9287,4.9303,4.9255,4.9342,4.9498,4.9517,4.9316,4.9314,4.9312,0,4.7916,4.8126,4.8277,4.8338,4.8501,4.8568,4.8638,4.875,4.8828,4.8939,4.899,4.9113,4.918,4.9273,4.9339,4.9303,4.9508,4.9471,4.9543,4.9541,4.9585,4.9581,4.9754,4.9624,4.9624,4.9623,4.9623,0,4.8061,4.8184,4.8306,4.8398,4.8536,4.8612,4.8745,4.8816,4.8915,4.9018,4.9058,4.9153,4.9235,4.934,4.9392,4.9528,4.9557,4.9592,4.9604,4.9589,4.9585,4.9631,4.9624,4.9629,4.9627,4.9626,4.9626,0,4.815,4.8237,4.8403,4.8545,4.8583,4.8678,4.8797,4.8885,4.8951,4.9081,4.9115,4.9217,4.9342,4.9418,4.9574,4.9609,4.9759,4.9767,4.9722,4.9728,4.9796,4.9788,5.0004,5.0036,4.9885,4.9886,4.9887,0,4.8237,4.8334,4.8487,4.8562,4.8634,4.8752,4.8833,4.8909,4.899,4.9128,4.9199,4.9327,4.9435,4.9631,4.9716,4.9835,4.9847,4.9915,4.9865,4.9847,4.9848,4.9842,4.9851,4.9923,4.9924,4.9925,4.9926,0,4.8382,4.8421,4.8538,4.867,4.8766,4.8872,4.8978,4.9035,4.9128,4.9216,4.9348,4.9431,4.9593,4.9718,4.9845,4.9912,4.9934,4.9941,4.9964,4.995,4.992,4.9937,4.9745,4.9936,4.9935,4.9934,4.9934,4.9933,4.8474,4.8561,4.8683,4.8812,4.89,4.8998,4.9088,4.9167,4.9279,4.942,4.9456,4.9593,4.9702,4.9876,4.9945,5.0049,5.0039,5.0072,5.008,5.0087,5.0089,4.9903,5.0072,5.0072,5.0072,5.0072,5.0072,0,4.8621,4.8701,4.8819,4.8968,4.9068,4.9084,4.9201,4.9282,4.9404,4.9506,4.9612,4.976,4.9883,4.9977,5.0102,5.0167,5.018,5.0197,5.0193,5.0208,5.0092,5.006,5.0184,5.0184,5.0184,5.0184,5.0184,5.0184,4.8709,4.8859,4.8911,4.9103,4.9181,4.932,4.9385,4.9473,4.9556,4.9722,4.9826,4.9888,4.9986,5.0118,5.0229,5.0253,5.0297,5.0312,5.0338,5.0228,5.0216,5.0204,5.0175,5.0321,5.0321,5.0446,5.0447,5.0447]}]]